格洛纳斯-789 COSMOS 2381 [GLONASS]

导读 | 星芒AI

COSMOS 2381 是一颗俄罗斯 GLONASS 卫星,于 1995 年发射,用于全球导航卫星系统。它属于 GLONASS-M 系列,旨在提供高精度的定位和导航服务。该卫星运行在中地球轨道,设计寿命约为 7 年。COSMOS 2381 在退役后仍留在轨道上,成为太空碎片的一部分。其任务体现了俄罗斯在导航技术领域的持续发展。

基本信息
目录编号:
26988
目录名称:
COSMOS 2381 (GLONASS)
国际标识:
2001-053B
轨道中心:
EARTH
卫星名称:
格洛纳斯-789
卫星全名:
格洛纳斯-789 COSMOS 2381 [GLONASS]
卫星状态:
在轨 (已飞行8736 天)
发射日期:
2001-12-01 UTC
国别 :
俄罗斯(独联体) (CIS)
星等 :
--
轨道信息
数据来源 国际轨道数据 AOE轨道数据
星历时间 2025-10-29T18:41:55+0800
2天前
查看轨道信息
2025-10-31T05:00:00+0800
1天前
查看轨道信息
半长轴 25507.889km 25507.841km
偏心率 0.0045493 0.0045548
轨道倾角 63.935° 63.936°
近地点辐角 227.265° 227.363°
升交点赤经 65.657° 65.606°
平近点角 130.509° 146.881°
近地点 19013.71km 19013.522km
远地点 19245.798km 19245.89km
周期 675.727分钟 675.725分钟
每日圈数 2.131037 2.131043
详细信息
平衡模式:
三轴稳定
覆盖范围:
全球
运营商:
列舍特涅夫卫星信息系统
运营商所在国:
俄罗斯
制造商(研发单位):
列舍特涅夫卫星信息系统
制造商所在国:
俄罗斯
使用方式:
暂无
卫星简介
格洛纳斯(GLONASS )是苏联/俄罗斯研制卫星导航系统。标准配置为24颗卫星,其中18颗卫星就能保证该系统为俄罗斯境内用户提供全部服务。该卫星已退役。
2D轨道图
3D轨道图
轨道高度分析图
轨道倾角分析图
轨道综合分析图
查看轨道综合分析图